Measurements were made at the meteorological tower in Juelich (50.90 N / 6.40 E) at an altitude of 100 m,
"Instrument: Fast Greenhouse Gas Analyzer (FGGA), Los Gatos Inc.",
Responsible PI: Dr. Marc von Hobe; Forschungszentrum Juelich GmbH; IEK-7; email: m.von.hobe@fz-juelich.de,
NaN or negative numbers are fill values (i.e. no valid measurements were made at that time),
Uncertainties are given as the 1-sigma standard deviation over each 10 minute intervals. In each interval ~600 individual measurements are carried out so that the standard error of the mean is approximately sigma/sqrt(600).,
time_utc,CO2_ppm,stdev_CO2_ppm,CH4_ppm,stdev_CH4_ppm,H2O_ppm,stdev_H2O_ppm
"2016-02-01 00:05:00 000",399.399,0.772826,1.92283,0.00831444,11529.5,99.2925
"2016-02-01 00:15:00 000",399.298,0.803806,1.91906,0.00605966,11552.4,93.3510
"2016-02-01 00:25:00 000",399.105,0.753636,1.91453,0.00733455,11563.6,99.7785
"2016-02-01 00:35:00 000",399.210,0.787614,1.91828,0.00663013,11576.1,102.425
"2016-02-01 00:45:00 000",399.201,0.792746,1.91768,0.00643404,11511.2,99.3930
"2016-02-01 00:55:00 000",399.183,0.797026,1.91571,0.00867548,11522.4,99.3714
"2016-02-01 01:05:00 000",399.040,0.777422,1.91546,0.00886322,11595.1,102.927
"2016-02-01 01:15:00 000",398.776,0.798597,1.91175,0.00690936,11607.7,103.466
"2016-02-01 01:25:00 000",398.824,0.789213,1.91143,0.00743849,11593.5,98.0782
"2016-02-01 01:35:00 000",398.847,0.785467,1.91363,0.00758729,11584.5,98.8276
"2016-02-01 01:45:00 000",398.920,0.798937,1.91204,0.00844712,11520.8,105.413
"2016-02-01 01:55:00 000",398.802,0.800277,1.91310,0.00716634,11477.0,101.060
"2016-02-01 02:05:00 000",398.607,0.807328,1.91267,0.00710578,11425.0,97.1204
"2016-02-01 02:15:00 000",398.468,0.838320,1.91323,0.00648783,11372.2,94.3806
"2016-02-01 02:25:00 000",398.208,0.801475,1.91209,0.00672972,11395.6,97.7064
"2016-02-01 02:35:00 000",398.421,0.777600,1.91400,0.00820868,11384.0,89.7441
"2016-02-01 02:45:00 000",398.746,0.803344,1.91472,0.00753893,11343.4,98.7075
"2016-02-01 02:55:00 000",399.151,0.789450,1.91730,0.00739768,11330.9,95.1803
"2016-02-01 03:05:00 000",399.269,0.799852,1.91950,0.00728503,11302.1,102.968
"2016-02-01 03:15:00 000",399.163,0.829366,1.91998,0.00714460,11247.4,98.5392
"2016-02-01 03:25:00 000",398.978,0.852280,1.91590,0.00757006,11230.2,98.7695
"2016-02-01 03:35:00 000",398.856,0.820251,1.91861,0.00685960,11251.6,103.789
"2016-02-01 03:45:00 000",398.869,0.797385,1.91237,0.00741942,11263.5,98.7161
"2016-02-01 03:55:00 000",399.050,0.817034,1.91645,0.00746159,11270.5,101.637
"2016-02-01 04:05:00 000",399.063,0.831273,1.91521,0.00662325,11246.2,120.569
"2016-02-01 04:15:00 000",398.812,0.853759,1.91611,0.00615733,11250.3,100.756
"2016-02-01 04:25:00 000",399.068,0.820102,1.91743,0.00829253,11240.5,99.5393
"2016-02-01 04:35:00 000",399.274,0.831954,1.91605,0.00796683,11250.2,93.0531
"2016-02-01 04:45:00 000",399.204,0.827409,1.91383,0.00765032,11245.3,96.2196
"2016-02-01 04:55:00 000",399.219,0.831475,1.91674,0.00662917,11261.4,97.8914
"2016-02-01 05:05:00 000",399.365,0.781039,1.92023,0.00654727,11249.7,95.4930
"2016-02-01 05:15:00 000",399.301,0.821443,1.91611,0.00849240,11238.4,94.9181
"2016-02-01 05:25:00 000",399.211,0.819671,1.91070,0.00573683,11213.9,98.7673
"2016-02-01 05:35:00 000",399.135,0.792473,1.91745,0.00786542,11147.5,92.4795
"2016-02-01 05:45:00 000",398.975,0.752524,1.91741,0.00650531,11154.6,99.1738
"2016-02-01 05:55:00 000",399.090,0.802445,1.91636,0.00669716,11178.6,91.2436
"2016-02-01 06:05:00 000",399.067,0.819710,1.91650,0.00857857,11146.8,97.8490
"2016-02-01 06:15:00 000",398.993,0.799233,1.91644,0.00611444,11172.7,94.8441
"2016-02-01 06:25:00 000",398.875,0.819251,1.91494,0.00712139,11165.6,94.9790
"2016-02-01 06:35:00 000",398.921,0.792488,1.91143,0.00707874,11121.2,94.0253
"2016-02-01 06:45:00 000",398.853,0.838828,1.91092,0.00606656,11122.1,95.1440
"2016-02-01 06:55:00 000",398.852,0.835127,1.91022,0.00711408,11154.9,89.5999
"2016-02-01 07:05:00 000",398.982,0.734834,1.90312,0.00669470,11208.1,91.3892
"2016-02-01 07:15:00 000",399.169,0.807310,1.90049,0.00601523,11309.6,96.7808
"2016-02-01 07:25:00 000",399.257,0.785058,1.90535,0.00584454,11399.6,96.8799
"2016-02-01 07:35:00 000",399.352,0.844127,1.89615,0.00496918,11410.9,101.840
"2016-02-01 07:45:00 000",399.053,0.799861,1.88998,0.00507262,11327.0,102.321
"2016-02-01 07:55:00 000",399.047,0.807099,1.89179,0.00664961,11235.1,102.325
"2016-02-01 08:05:00 000",399.063,0.866755,1.89102,0.00559122,11213.7,95.4513
"2016-02-01 08:15:00 000",398.540,0.817253,1.89291,0.00499390,11192.1,101.402
"2016-02-01 08:25:00 000",398.486,0.816762,1.88701,0.00467897,11062.4,99.1774
"2016-02-01 08:35:00 000",398.210,0.823906,1.89109,0.00578051,11051.2,91.0654
"2016-02-01 08:45:00 000",398.191,0.777479,1.89274,0.00588324,11031.6,96.0883
"2016-02-01 08:55:00 000",398.370,0.811773,1.89102,0.00583919,11097.6,106.089
"2016-02-01 09:05:00 000",398.754,0.824415,1.88632,0.00646396,11167.9,96.6036
"2016-02-01 09:15:00 000",398.646,0.871586,1.88681,0.00623588,11123.5,91.7938
"2016-02-01 09:25:00 000",397.867,0.832868,1.88546,0.00743141,11184.6,95.7240
"2016-02-01 09:35:00 000",397.807,0.802806,1.87623,0.00406850,11192.7,97.7593
"2016-02-01 09:45:00 000",397.793,0.830149,1.87653,0.00404921,11120.6,100.398
"2016-02-01 09:55:00 000",397.606,0.781970,1.88362,0.00939955,10901.0,131.288
"2016-02-01 10:05:00 000",397.737,0.810911,1.88840,0.00782391,10643.7,106.799
"2016-02-01 10:15:00 000",398.246,0.793093,1.87980,0.00346861,10444.3,96.8765
"2016-02-01 10:25:00 000",398.328,0.816894,1.88132,0.00391411,10322.3,86.4308
"2016-02-01 10:35:00 000",398.393,0.826737,1.89133,0.00731823,10265.3,93.5074
"2016-02-01 10:45:00 000",398.354,0.826125,1.88626,0.00601167,10130.3,110.105
"2016-02-01 10:55:00 000",398.432,0.783421,1.88400,0.00399727,9957.50,111.052
"2016-02-01 11:05:00 000",398.264,0.829791,1.88265,0.00384877,9824.80,93.4225
"2016-02-01 11:15:00 000",397.888,0.798381,1.88551,0.00430370,9705.44,107.917
"2016-02-01 11:25:00 000",398.078,0.831052,1.88480,0.00395680,9362.83,200.885
"2016-02-01 11:35:00 000",398.175,0.788431,1.88609,0.00382242,9006.74,105.748
"2016-02-01 11:45:00 000",398.261,0.787476,1.88667,0.00384637,8909.06,96.0110
"2016-02-01 11:55:00 000",398.215,0.822429,1.90011,0.00699959,8878.18,81.9653
"2016-02-01 12:05:00 000",398.468,0.797983,1.89573,0.00684306,8807.25,97.8544
"2016-02-01 12:15:00 000",398.532,0.830598,1.89408,0.00616441,8734.12,87.6364
"2016-02-01 12:25:00 000",398.595,0.767931,1.89611,0.00914269,8739.92,93.6279
"2016-02-01 12:35:00 000",398.871,0.828683,1.89919,0.00669419,8711.46,90.9278
"2016-02-01 12:45:00 000",399.007,0.797715,1.89234,0.00513347,8691.80,86.2488
"2016-02-01 12:55:00 000",399.095,0.791807,1.89471,0.00548025,8640.59,87.6604
"2016-02-01 13:05:00 000",398.900,0.766479,1.88924,0.00392836,8688.91,90.0925
"2016-02-01 13:15:00 000",398.718,0.792236,1.88880,0.00378356,8666.41,88.5106
"2016-02-01 13:25:00 000",398.584,0.786182,1.88823,0.00361814,8638.09,91.4994
"2016-02-01 13:35:00 000",398.679,0.773334,1.88612,0.00370013,8554.49,94.0310
"2016-02-01 13:45:00 000",398.801,0.736493,1.88567,0.00368808,8519.97,93.1457
"2016-02-01 13:55:00 000",398.788,0.796934,1.88528,0.00366523,8515.40,86.3783
"2016-02-01 14:05:00 000",398.802,0.797718,1.88621,0.00365661,8539.62,91.0800
"2016-02-01 14:15:00 000",398.891,0.773156,1.88873,0.00393503,8584.80,85.7102
"2016-02-01 14:25:00 000",398.990,0.779487,1.89099,0.00390347,8610.04,95.2771
"2016-02-01 14:35:00 000",398.932,0.791667,1.88896,0.00383356,8651.37,84.6187
"2016-02-01 14:45:00 000",398.925,0.820942,1.88939,0.00384866,8652.30,87.9543
"2016-02-01 14:55:00 000",398.876,0.801217,1.89208,0.00401429,8624.38,81.5408
"2016-02-01 15:05:00 000",398.972,0.762798,1.89571,0.00574411,8616.27,83.7999
"2016-02-01 15:15:00 000",398.961,0.777623,1.89819,0.00505948,8613.86,86.6295
"2016-02-01 15:25:00 000",398.874,0.777487,1.89511,0.00487174,8592.19,89.9960
"2016-02-01 15:35:00 000",398.927,0.769309,1.89289,0.00458391,8596.32,91.5333
"2016-02-01 15:45:00 000",399.088,0.751825,1.89165,0.00381733,8595.04,87.2970
"2016-02-01 15:55:00 000",399.243,0.740380,1.89232,0.00352210,8613.06,88.0353
"2016-02-01 16:05:00 000",399.266,0.776441,1.89256,0.00362371,8695.38,88.4893
"2016-02-01 16:15:00 000",399.276,0.832829,1.89155,0.00360080,8738.88,85.4102
"2016-02-01 16:25:00 000",399.339,0.808365,1.89173,0.00375796,8775.10,94.6873
"2016-02-01 16:35:00 000",399.563,0.779502,1.89279,0.00373992,8856.92,94.0974
"2016-02-01 16:45:00 000",399.678,0.788391,1.89376,0.00368977,8905.07,94.6517
"2016-02-01 16:55:00 000",399.636,0.791167,1.89552,0.00373168,8970.01,92.5619
"2016-02-01 17:05:00 000",399.729,0.806402,1.89670,0.00357978,8997.93,89.4663
"2016-02-01 17:15:00 000",399.675,0.767766,1.89802,0.00352274,8947.26,91.6964
"2016-02-01 17:25:00 000",399.657,0.777867,1.89921,0.00347716,8908.96,87.1858
"2016-02-01 17:35:00 000",399.850,0.815373,1.90061,0.00367827,8917.53,91.6771
"2016-02-01 17:45:00 000",399.747,0.826347,1.90037,0.00388113,8920.47,87.5071
"2016-02-01 17:55:00 000",399.744,0.819978,1.90122,0.00392129,8906.83,88.0558
"2016-02-01 18:05:00 000",399.803,0.786899,1.90160,0.00380388,8896.07,87.7711
"2016-02-01 18:15:00 000",399.917,0.814291,1.90139,0.00384708,8888.61,89.8458
"2016-02-01 18:25:00 000",399.810,0.753678,1.90218,0.00357291,8874.39,87.8862
"2016-02-01 18:35:00 000",399.794,0.783666,1.90343,0.00358178,8881.06,86.1125
"2016-02-01 18:45:00 000",399.769,0.779641,1.90201,0.00384699,8904.67,88.9235
"2016-02-01 18:55:00 000",399.655,0.758868,1.90119,0.00380987,8964.47,88.8514
"2016-02-01 19:05:00 000",399.548,0.799973,1.90057,0.00385306,8998.17,87.6846
"2016-02-01 19:15:00 000",399.533,0.771570,1.89969,0.00433055,9006.57,89.1843
"2016-02-01 19:25:00 000",399.414,0.762625,1.89949,0.00453613,9031.46,90.8310
"2016-02-01 19:35:00 000",399.371,0.778176,1.89753,0.00404864,9052.05,93.7129
"2016-02-01 19:45:00 000",399.361,0.787688,1.89851,0.00427956,9058.42,88.5544
"2016-02-01 19:55:00 000",399.267,0.764336,1.89522,0.00394917,9110.57,87.7971
"2016-02-01 20:05:00 000",399.320,0.785483,1.89775,0.00396981,9118.38,91.5926
"2016-02-01 20:15:00 000",399.206,0.802504,1.89994,0.00539461,9161.67,94.3734
"2016-02-01 20:25:00 000",399.015,0.785716,1.89642,0.00436718,9252.36,98.8464
"2016-02-01 20:35:00 000",398.976,0.853342,1.89808,0.00451518,9361.84,97.5179
"2016-02-01 20:45:00 000",398.603,0.784939,1.90230,0.00512939,9486.33,107.842
"2016-02-01 20:55:00 000",398.614,0.798726,1.89972,0.00467059,9794.73,115.625
"2016-02-01 21:05:00 000",398.652,0.785509,1.89567,0.00371575,9695.00,137.234
"2016-02-01 21:15:00 000",398.910,0.815872,1.89512,0.00379886,9432.11,96.7920
"2016-02-01 21:25:00 000",398.953,0.781010,1.89358,0.00372829,9344.88,91.8512
"2016-02-01 21:35:00 000",399.015,0.835047,1.89298,0.00370555,9380.69,92.8476
"2016-02-01 21:45:00 000",398.997,0.785911,1.89396,0.00380332,9456.81,94.9086
"2016-02-01 21:55:00 000",398.832,0.767477,1.89309,0.00382348,9544.70,93.2381
"2016-02-01 22:05:00 000",398.674,0.885942,1.89231,0.00368223,9570.76,92.4072
"2016-02-01 22:15:00 000",398.715,0.838692,1.89198,0.00396007,9656.64,99.2914
"2016-02-01 22:25:00 000",398.666,0.821022,1.89149,0.00365862,9726.23,93.5374
"2016-02-01 22:35:00 000",398.703,0.815727,1.89186,0.00371646,9691.56,95.7230
"2016-02-01 22:45:00 000",398.734,0.834795,1.89323,0.00373145,9719.42,91.6525
"2016-02-01 22:55:00 000",398.846,0.818177,1.89333,0.00358845,9737.03,91.8536
"2016-02-01 23:05:00 000",398.945,0.810608,1.89400,0.00381300,9755.85,92.0484
"2016-02-01 23:15:00 000",399.108,0.789266,1.89486,0.00367438,9748.54,91.0452
"2016-02-01 23:25:00 000",399.125,0.804372,1.89576,0.00358404,9721.21,87.5189
"2016-02-01 23:35:00 000",399.199,0.831905,1.89627,0.00361783,9730.84,88.0071
"2016-02-01 23:45:00 000",399.170,0.832889,1.89655,0.00388664,9725.33,96.0161
"2016-02-01 23:55:00 000",399.222,0.794062,1.89748,0.00361541,9660.41,89.8624
"2016-02-02 00:05:00 000",399.170,0.803854,1.89705,0.00367274,9627.38,96.4986
"2016-02-02 00:15:00 000",399.174,0.807145,1.89883,0.00388710,9634.41,97.9758
"2016-02-02 00:25:00 000",398.865,0.818019,1.90392,0.00533075,9638.33,105.103
"2016-02-02 00:35:00 000",399.004,0.809572,1.90110,0.00397701,9699.36,224.421
"2016-02-02 00:45:00 000",398.956,0.845169,1.90217,0.00392743,10056.9,95.1803
"2016-02-02 00:55:00 000",398.934,0.795170,1.89986,0.00362728,10153.7,101.271
"2016-02-02 01:05:00 000",398.864,0.843340,1.90075,0.00444095,10094.8,121.789
"2016-02-02 01:15:00 000",398.878,0.822451,1.90013,0.00412444,10168.6,110.329
"2016-02-02 01:25:00 000",398.966,0.805477,1.89818,0.00388408,10194.1,96.2883
"2016-02-02 01:35:00 000",399.127,0.818241,1.89994,0.00381681,10445.1,132.075
"2016-02-02 01:45:00 000",399.168,0.820369,1.90069,0.00388756,10597.9,95.9412
"2016-02-02 01:55:00 000",399.324,0.802034,1.90186,0.00409776,10422.6,118.176
"2016-02-02 02:05:00 000",399.265,0.822411,1.89966,0.00361814,10330.5,102.088
"2016-02-02 02:15:00 000",399.311,0.821321,1.90780,0.00575974,10348.9,96.6448
"2016-02-02 02:25:00 000",399.266,0.781159,1.90510,0.00565465,10439.2,97.6221
"2016-02-02 02:35:00 000",399.192,0.782527,1.91283,0.00639033,10214.7,173.829
"2016-02-02 02:45:00 000",399.229,0.771924,1.91718,0.00641205,9851.53,100.894
"2016-02-02 02:55:00 000",399.507,0.793962,1.91302,0.00709867,9980.04,125.068
"2016-02-02 03:05:00 000",399.353,0.846070,1.90955,0.00541081,10164.9,92.2200
"2016-02-02 03:15:00 000",399.131,0.791702,1.90342,0.00357548,10307.3,98.7640
"2016-02-02 03:25:00 000",399.149,0.834285,1.90089,0.00374964,10477.5,97.4760
"2016-02-02 03:35:00 000",399.090,0.779555,1.89977,0.00356898,10582.1,88.5497
"2016-02-02 03:45:00 000",399.292,0.821401,1.89897,0.00367807,10664.4,97.0264
"2016-02-02 03:55:00 000",399.097,0.810538,1.89923,0.00368800,10736.3,95.1840
"2016-02-02 04:05:00 000",399.343,0.818894,1.92052,0.0140958,10741.5,114.546
"2016-02-02 04:15:00 000",399.619,0.822151,1.92990,0.00834891,10502.7,152.200
"2016-02-02 04:25:00 000",400.076,0.816882,1.95027,0.0325313,10209.5,100.905
"2016-02-02 04:35:00 000",401.110,0.855242,1.92195,0.0135839,10110.2,92.7682
"2016-02-02 04:45:00 000",400.897,0.837363,1.98474,0.0461572,10129.1,96.3219
"2016-02-02 04:55:00 000",400.929,0.897059,1.92717,0.0100476,10217.9,87.4013
"2016-02-02 05:05:00 000",400.882,1.15218,1.94348,0.0407658,10129.4,140.178
"2016-02-02 05:15:00 000",399.198,0.856035,1.90742,0.00355955,9796.50,101.814
"2016-02-02 05:25:00 000",399.068,0.832363,1.90856,0.00467405,9772.16,88.8897
"2016-02-02 05:35:00 000",398.432,0.850444,1.91691,0.0145331,9725.40,89.1146
"2016-02-02 05:45:00 000",398.248,0.847961,1.94746,0.0171799,9818.80,92.8722
"2016-02-02 05:55:00 000",398.026,0.807191,1.94287,0.0160023,9890.11,87.0753
"2016-02-02 06:05:00 000",398.269,0.801377,1.95868,0.0172951,9859.25,88.9635
"2016-02-02 06:15:00 000",398.531,0.807332,1.96416,0.0168687,9823.30,84.8837
"2016-02-02 06:25:00 000",398.882,0.841488,1.92081,0.0173682,9838.49,85.1710
"2016-02-02 06:35:00 000",398.965,0.865067,1.90560,0.00496948,9809.42,86.6628
"2016-02-02 06:45:00 000",398.914,0.849788,1.91418,0.0138368,9818.28,88.0279
"2016-02-02 06:55:00 000",398.898,0.828265,1.90154,0.00475947,9839.72,85.4065
"2016-02-02 07:05:00 000",398.959,0.871525,1.90274,0.00496046,9861.40,86.4983
"2016-02-02 07:15:00 000",399.453,0.845530,1.91344,0.00686317,9896.13,82.9156
"2016-02-02 07:25:00 000",399.296,0.878335,1.91234,0.00675754,9878.10,89.3476
"2016-02-02 07:35:00 000",399.049,0.847927,1.91079,0.00696569,9864.77,86.5246
"2016-02-02 07:45:00 000",399.534,0.849321,1.90531,0.00450309,9871.77,87.4600
"2016-02-02 07:55:00 000",399.981,0.818839,1.91370,0.00958682,9887.88,87.9441
"2016-02-02 08:05:00 000",399.680,0.846374,1.92843,0.00979570,9864.08,88.2067
"2016-02-02 08:15:00 000",399.711,0.823384,1.93416,0.00844467,9860.67,87.7105
"2016-02-02 08:25:00 000",399.802,0.844347,1.93529,0.00730856,9844.18,83.1532
"2016-02-02 08:35:00 000",399.620,0.856268,1.93543,0.00868601,9804.11,87.6203
"2016-02-02 08:45:00 000",399.122,0.820304,1.93538,0.00771021,9816.64,85.3722
"2016-02-02 08:55:00 000",399.277,0.842478,1.93434,0.0131950,9833.85,85.4976
"2016-02-02 09:05:00 000",399.656,0.844972,1.91497,0.00594870,9821.16,91.1768
"2016-02-02 09:15:00 000",399.777,0.860705,1.91368,0.00547981,9786.00,91.2334
"2016-02-02 09:25:00 000",399.753,0.803092,1.91304,0.00518769,9848.83,85.9954
"2016-02-02 09:35:00 000",399.860,0.863548,1.91391,0.00552403,9842.63,88.2361
"2016-02-02 09:45:00 000",400.010,0.855189,1.90967,0.00458881,9865.91,89.4573
"2016-02-02 09:55:00 000",399.989,0.827429,1.91125,0.00526045,9940.43,90.7168
"2016-02-02 10:05:00 000",399.898,0.810444,1.91044,0.00485820,9989.38,86.9458
"2016-02-02 10:15:00 000",399.838,0.835832,1.91162,0.00441165,9990.71,81.1797
"2016-02-02 10:25:00 000",399.982,0.843749,1.91814,0.00482430,10031.5,88.7491
"2016-02-02 10:35:00 000",400.095,0.817737,1.91665,0.00538838,10014.2,86.7724
"2016-02-02 10:45:00 000",400.053,0.841363,1.92479,0.00671946,9978.33,85.3727
"2016-02-02 10:55:00 000",400.091,0.839669,1.92019,0.00542794,9956.15,83.5553
"2016-02-02 11:05:00 000",400.381,0.879720,1.93393,0.00912583,9919.82,86.6797
"2016-02-02 11:15:00 000",400.634,0.819210,1.93404,0.00802820,9898.76,79.4007
"2016-02-02 11:25:00 000",400.606,0.819396,1.92805,0.00772058,9899.89,85.1459
"2016-02-02 11:35:00 000",400.701,0.809575,1.93168,0.00800006,9940.89,87.7981
"2016-02-02 11:45:00 000",400.868,0.832276,1.93252,0.00720534,10003.0,86.4438
"2016-02-02 11:55:00 000",400.898,0.871610,1.92400,0.00607266,9954.67,88.0020
"2016-02-02 12:05:00 000",400.706,0.855940,1.92412,0.00453191,9944.49,85.8641
"2016-02-02 12:15:00 000",400.723,0.802462,1.92986,0.00949973,10008.4,83.2378
"2016-02-02 12:25:00 000",401.160,0.841308,1.95992,0.0145154,10028.1,82.5438
"2016-02-02 12:35:00 000",401.162,0.865212,1.95312,0.0229848,10048.1,84.5679
"2016-02-02 12:45:00 000",401.278,0.846057,1.93199,0.00780073,9975.08,116.271
"2016-02-02 12:55:00 000",399.444,0.966557,1.90965,0.00748666,9027.54,319.202
"2016-02-02 13:05:00 000",399.404,0.851572,1.90616,0.00390758,8815.90,109.643
"2016-02-02 13:15:00 000",400.049,0.874399,1.91089,0.00555393,8956.42,93.2124
"2016-02-02 13:25:00 000",399.790,0.898353,1.92003,0.00467685,8999.76,93.6646
"2016-02-02 13:35:00 000",399.332,0.877599,1.91612,0.00607010,8951.88,89.2037
"2016-02-02 13:45:00 000",399.383,0.844178,1.91292,0.00480676,8991.49,88.1826
"2016-02-02 13:55:00 000",399.487,0.823937,1.91684,0.00514949,9031.56,89.4672
"2016-02-02 14:05:00 000",399.255,0.832452,1.91639,0.00664762,9043.61,91.1563
"2016-02-02 14:15:00 000",399.181,0.841657,1.91089,0.00473650,8976.81,87.3850
"2016-02-02 14:25:00 000",399.341,0.837143,1.92572,0.0146019,8994.49,94.9750
"2016-02-02 14:35:00 000",399.830,0.841308,1.93479,0.0147727,9012.50,94.7687
"2016-02-02 14:45:00 000",400.218,0.864848,1.90827,0.00411023,8962.71,93.6504
"2016-02-02 14:55:00 000",400.135,0.861771,1.91035,0.00378023,8958.89,92.1617
"2016-02-02 15:05:00 000",400.048,0.860643,1.91427,0.00400258,8922.43,86.6289
"2016-02-02 15:15:00 000",399.851,0.835824,1.91791,0.00454509,8896.64,94.2108
"2016-02-02 15:25:00 000",399.750,0.850932,1.93453,0.00951679,8841.45,92.5452
"2016-02-02 15:35:00 000",399.360,0.885891,1.94045,0.0110019,8791.73,89.9908
"2016-02-02 15:45:00 000",399.411,0.841583,1.93520,0.0109512,8763.58,97.8974
"2016-02-02 15:55:00 000",399.242,0.853793,1.93141,0.00980247,8715.38,94.2770
"2016-02-02 16:05:00 000",398.908,0.845128,1.92142,0.00868665,8718.33,105.578
"2016-02-02 16:15:00 000",399.259,0.810337,1.93951,0.00722268,8656.39,110.306
"2016-02-02 16:25:00 000",399.389,0.902542,1.91520,0.0102708,8723.67,124.045
"2016-02-02 16:35:00 000",399.464,0.829723,1.90603,0.00409980,8748.37,120.581
"2016-02-02 16:45:00 000",399.442,0.839792,1.91175,0.00488427,8806.38,127.029
"2016-02-02 16:55:00 000",399.674,0.849939,1.91818,0.00434107,8912.29,126.056
"2016-02-02 17:05:00 000",400.227,0.894177,1.92006,0.00439472,8972.15,125.797
"2016-02-02 17:15:00 000",400.041,0.844357,1.91821,0.00465365,8949.26,126.581
"2016-02-02 17:25:00 000",399.393,0.846136,1.93214,0.00990230,8848.90,119.821
"2016-02-02 17:35:00 000",399.433,0.880542,1.93380,0.0100995,8848.02,127.413
"2016-02-02 17:45:00 000",399.556,0.868583,1.93879,0.00958216,8927.03,117.548
"2016-02-02 17:55:00 000",399.808,0.819904,1.94094,0.00750146,8951.12,124.730
"2016-02-02 18:05:00 000",400.056,0.880448,1.94821,0.00858909,9024.66,125.705
"2016-02-02 18:15:00 000",400.080,0.864647,1.94189,0.00784448,9034.08,132.704
"2016-02-02 18:25:00 000",400.210,0.837272,1.94341,0.00890499,8987.55,131.890
"2016-02-02 18:35:00 000",400.119,0.861493,1.93670,0.00660050,8910.83,137.364
"2016-02-02 18:45:00 000",400.371,0.870362,1.94245,0.00902659,8760.26,154.788
"2016-02-02 18:55:00 000",400.492,0.859257,1.93834,0.00658471,8545.17,146.115
"2016-02-02 19:05:00 000",400.362,0.824107,1.93404,0.00505879,8411.64,141.135
"2016-02-02 19:15:00 000",400.388,0.896250,1.92727,0.00679932,8312.08,154.104
"2016-02-02 19:25:00 000",400.752,0.876667,1.92423,0.00592841,8177.65,147.183
"2016-02-02 19:35:00 000",400.849,0.908023,1.92432,0.00513482,8110.97,140.899
"2016-02-02 19:45:00 000",400.842,0.897415,1.93448,0.00741857,8050.12,136.690
"2016-02-02 19:55:00 000",400.704,0.878218,1.94246,0.00699162,8032.21,134.005
"2016-02-02 20:05:00 000",400.727,0.906380,1.94274,0.00694982,7993.53,149.026
"2016-02-02 20:15:00 000",400.862,0.932532,1.95163,0.00839158,7768.10,166.728
"2016-02-02 20:25:00 000",400.862,0.922880,1.94461,0.00656191,7593.26,152.357
"2016-02-02 20:35:00 000",401.004,0.897722,1.95405,0.0108706,7450.02,151.129
"2016-02-02 20:45:00 000",400.915,0.867596,1.95547,0.00918759,7365.60,153.038
"2016-02-02 20:55:00 000",400.791,0.831249,1.95316,0.00698724,7302.43,152.789
"2016-02-02 21:05:00 000",400.866,0.887157,1.95018,0.00789765,7219.93,165.099
"2016-02-02 21:15:00 000",400.879,0.862156,1.95151,0.00765389,7100.82,160.675
"2016-02-02 21:25:00 000",400.983,0.887937,1.95561,0.00721856,7042.47,153.371
"2016-02-02 21:35:00 000",401.083,0.876051,1.95614,0.00726013,7032.43,177.058
"2016-02-02 21:45:00 000",401.112,0.894452,1.95514,0.00780704,7019.29,168.703
"2016-02-02 21:55:00 000",401.189,0.898363,1.95425,0.00669613,7013.13,185.237
"2016-02-02 22:05:00 000",401.385,0.874864,1.96031,0.00790074,7015.87,192.276
"2016-02-02 22:15:00 000",401.419,0.854852,1.95933,0.00723337,7033.50,193.441
"2016-02-02 22:25:00 000",401.638,0.898281,1.96294,0.00820527,6948.82,213.035
"2016-02-02 22:35:00 000",401.814,0.927435,1.95636,0.00664273,6872.00,234.342
"2016-02-02 22:45:00 000",402.143,0.925144,1.96243,0.00832295,6748.04,222.839
"2016-02-02 22:55:00 000",402.372,0.972015,1.96355,0.00790962,6676.52,242.919
"2016-02-02 23:05:00 000",402.284,0.928934,1.96210,0.00885784,6573.86,238.381
"2016-02-02 23:15:00 000",402.635,0.930613,1.96964,0.00841228,6534.29,242.457
"2016-02-02 23:25:00 000",402.552,0.885379,1.96320,0.00874151,6609.49,246.577
"2016-02-02 23:35:00 000",402.478,0.905677,1.96078,0.00755774,6656.61,243.094
"2016-02-02 23:45:00 000",402.366,0.907132,1.95894,0.00807970,6558.85,268.374
"2016-02-02 23:55:00 000",402.319,0.930880,1.96197,0.00828987,6554.45,260.660
"2016-02-03 00:05:00 000",402.443,0.947410,1.96425,0.00958965,6544.34,270.849
"2016-02-03 00:15:00 000",402.447,0.901629,1.96619,0.00860083,6506.44,253.795
"2016-02-03 00:25:00 000",402.596,0.934949,1.96482,0.00896198,6543.53,248.634
"2016-02-03 00:35:00 000",402.587,0.945939,1.96631,0.0105477,6587.40,265.997
"2016-02-03 00:45:00 000",402.605,0.937402,1.96207,0.00885031,6616.02,270.016
"2016-02-03 00:55:00 000",402.827,0.900545,1.96481,0.00819908,6627.66,270.049
"2016-02-03 01:05:00 000",402.909,0.959237,1.96995,0.0107263,6609.68,278.334
"2016-02-03 01:15:00 000",403.027,0.945259,1.97422,0.0117372,6637.04,277.216
"2016-02-03 01:25:00 000",403.185,0.939679,1.97298,0.00850792,6682.39,280.374
"2016-02-03 01:35:00 000",403.384,0.959421,1.97626,0.00999979,6737.01,281.033
"2016-02-03 01:45:00 000",403.564,0.941850,1.97949,0.0116046,6734.04,283.298